Estació meteorològica de Bellmunt (Osona, Osona)

Consulta les dades en temps real de l'estació meteorològica de Bellmunt





Hora UTC 08:15
Temperatura 23.8 ºC
Humitat 62.0 %
Pressió 1016.5 hPa
Pluja 0.0 mm
Velocitat vent 1.6 km/h
Direcció vent NW

Dades diàries 2026-09-01



Hora UTC (hivern +1h; estiu +2h)
Temperatura (ºC) Humitat (%) Pressió (hPa) Velocitat vent (km/h) Precipitació (mm)
Hora UTC Aire Humitat Pressió Vel. Dir. Vel. Max Dir. Intent. màx 5 min.
00:05 19.8 66.0 1017.3 0.0 NE 0.0 0.0
00:10 19.7 66.0 1017.3 3.2 E 3.2 0.0
00:15 19.7 66.0 1017.3 4.8 NE 4.8 0.0
00:20 19.7 66.0 1017.4 0.0 ENE 4.8 0.0
00:25 19.7 66.0 1017.4 0.0 ENE 4.8 0.0
00:30 19.8 66.0 1017.3 3.2 NE 3.2 0.0
00:35 19.7 66.0 1017.3 4.8 NE 6.4 0.0
00:40 19.7 66.0 1017.2 0.0 ENE 6.4 0.0
00:45 19.7 66.0 1017.2 0.0 ESE 6.4 0.0
00:50 19.6 66.0 1017.2 0.0 ESE 1.6 0.0
00:55 19.6 66.0 1017.2 0.0 NE 0.0 0.0
01:00 19.6 66.0 1017.2 0.0 NE 0.0 0.0
01:05 19.5 67.0 1017.2 0.0 NE 0.0 0.0
01:10 19.4 67.0 1017.3 0.0 NE 0.0 0.0
01:15 19.4 67.0 1017.2 0.0 E 0.0 0.0
01:20 19.7 67.0 1017.2 4.8 ENE 4.8 0.0
01:25 19.9 66.0 1017.1 3.2 ENE 6.4 0.0
01:30 20.1 66.0 1017.1 1.6 ENE 6.4 0.0
01:35 20.3 65.0 1017.1 0.0 E 4.8 0.0
01:40 20.3 65.0 1017.1 0.0 E 4.8 0.0
01:45 20.3 64.0 1017.1 0.0 E 0.0 0.0
01:50 20.3 64.0 1017.1 0.0 E 0.0 0.0
01:55 20.1 65.0 1017.1 0.0 E 0.0 0.0
02:00 19.9 66.0 1017.0 0.0 N 0.0 0.0
02:05 19.7 66.0 1017.0 0.0 N 0.0 0.0
02:10 19.7 66.0 1017.1 0.0 N 0.0 0.0
02:15 19.7 67.0 1017.0 0.0 S 0.0 0.0
02:20 19.7 66.0 1017.0 0.0 SSE 0.0 0.0
02:25 19.7 66.0 1016.9 0.0 SSE 0.0 0.0
02:30 19.7 66.0 1016.8 0.0 SE 0.0 0.0
02:35 19.9 66.0 1016.8 0.0 ESE 0.0 0.0
02:40 20.1 66.0 1016.8 0.0 N 0.0 0.0
02:45 20.1 65.0 1016.8 0.0 NNE 0.0 0.0
02:50 20.2 65.0 1016.7 4.8 NE 6.4 0.0
02:55 20.3 65.0 1016.6 0.0 NE 6.4 0.0
03:00 20.4 65.0 1016.6 3.2 E 4.8 0.0
03:05 20.5 65.0 1016.6 4.8 ENE 4.8 0.0
03:10 20.4 65.0 1016.5 1.6 ENE 4.8 0.0
03:15 20.4 65.0 1016.4 0.0 ENE 6.4 0.0
03:20 20.5 66.0 1016.3 0.0 ESE 6.4 0.0
03:25 20.4 65.0 1016.4 3.2 SW 4.8 0.0
03:30 20.2 65.0 1016.5 0.0 SW 4.8 0.0
03:35 20.1 66.0 1016.4 0.0 SW 1.6 0.0
03:40 20.1 66.0 1016.2 0.0 WSW 3.2 0.0
03:45 20.0 66.0 1016.2 0.0 WSW 3.2 0.0
03:50 19.9 66.0 1016.2 0.0 WSW 0.0 0.0
03:55 19.8 66.0 1016.2 0.0 WSW 0.0 0.0
04:00 19.9 67.0 1016.1 0.0 WSW 0.0 0.0
04:05 19.9 67.0 1016.1 0.0 WSW 0.0 0.0
04:10 19.8 67.0 1016.1 0.0 WSW 0.0 0.0
04:15 19.8 67.0 1016.1 0.0 WSW 0.0 0.0
04:20 19.8 67.0 1016.0 0.0 WSW 0.0 0.0
04:25 19.8 67.0 1016.0 0.0 WSW 0.0 0.0
04:30 19.9 67.0 1015.9 0.0 WSW 0.0 0.0
04:35 20.1 66.0 1015.9 0.0 WSW 0.0 0.0
04:40 20.1 66.0 1015.9 0.0 WSW 0.0 0.0
04:45 20.0 67.0 1015.9 0.0 WSW 0.0 0.0
04:50 19.8 67.0 1015.9 0.0 WSW 0.0 0.0
04:55 19.8 67.0 1016.0 0.0 WSW 0.0 0.0
05:00 19.8 67.0 1016.1 0.0 WSW 0.0 0.0
05:05 19.7 67.0 1016.1 0.0 WSW 0.0 0.0
05:10 19.6 68.0 1016.0 0.0 WSW 0.0 0.0
05:15 19.7 68.0 1016.0 0.0 WSW 0.0 0.0
05:20 19.5 68.0 1016.1 0.0 WSW 0.0 0.0
05:25 19.3 68.0 1016.1 0.0 WSW 0.0 0.0
05:30 19.3 68.0 1016.1 0.0 WSW 0.0 0.0
05:35 19.1 69.0 1016.1 0.0 WSW 0.0 0.0
05:40 18.9 69.0 1016.2 0.0 WSW 0.0 0.0
05:45 18.9 69.0 1016.2 0.0 WSW 0.0 0.0
05:50 19.0 70.0 1016.2 0.0 WSW 0.0 0.0
05:55 19.2 70.0 1016.2 0.0 WSW 0.0 0.0
06:00 19.3 70.0 1016.2 0.0 WSW 0.0 0.0
06:05 19.4 70.0 1016.2 0.0 WSW 0.0 0.0
06:10 19.6 70.0 1016.3 0.0 WSW 0.0 0.0
06:15 19.8 70.0 1016.3 0.0 WSW 0.0 0.0
06:20 19.9 69.0 1016.2 0.0 WSW 0.0 0.0
06:25 20.0 69.0 1016.2 0.0 WSW 0.0 0.0
06:30 20.2 69.0 1016.3 0.0 WSW 0.0 0.0
06:35 20.4 68.0 1016.3 0.0 WSW 0.0 0.0
06:40 20.4 68.0 1016.4 0.0 WSW 0.0 0.0
06:45 20.6 67.0 1016.5 0.0 WSW 0.0 0.0
06:50 20.6 67.0 1016.4 0.0 WSW 0.0 0.0
06:55 20.8 67.0 1016.4 0.0 WSW 0.0 0.0
07:00 20.9 67.0 1016.5 0.0 WSW 0.0 0.0
07:05 21.1 66.0 1016.5 0.0 WSW 0.0 0.0
07:10 21.2 66.0 1016.5 0.0 WSW 0.0 0.0
07:15 21.4 65.0 1016.5 0.0 WSW 0.0 0.0
07:20 21.6 65.0 1016.5 3.2 WSW 4.8 0.0
07:25 21.7 65.0 1016.5 0.0 SSE 4.8 0.0
07:30 21.8 64.0 1016.5 0.0 SSE 4.8 0.0
07:35 22.1 64.0 1016.6 3.2 SSE 3.2 0.0
07:40 21.8 64.0 1016.6 3.2 SSE 6.4 0.0
07:45 21.8 64.0 1016.7 6.4 SSE 6.4 0.0
07:50 21.9 64.0 1016.7 1.6 SSW 4.8 0.0
07:55 22.1 64.0 1016.7 0.0 WSW 4.8 0.0
08:00 22.4 64.0 1016.6 0.0 WSW 3.2 0.0
08:05 22.9 63.0 1016.5 3.2 NE 4.8 0.0
08:10 23.5 61.0 1016.4 4.8 NW 4.8 0.0
08:15 23.8 62.0 1016.5 1.6 NW 4.8 0.0
Màxima 23.8 70.0 1017.4 6.4 SSE 6.4 0.0
Mínima 18.9 61.0 1015.9
Total 0.0